Location: El Águila
(10.4167°N, 66.7167°W)
Time: 03:44:49
(UTC+00:00)

SWIFT - Pass Details

Date: 02 October 2022
Orbit: 536 x 550 km, 20.6° (Epoch: 04 December)

Event Time Altitude Azimuth Distance (km) Brightness Sun altitude
Rises 23:14:16 0° 243° (WSW) 2,698 7.1 -15.0°
Reaches altitude 10° 23:16:34 10° 239° (WSW) 1,807 5.9 -15.6°
Maximum altitude 23:20:43 58° 159° (SSE) 640 2.5 -16.6°
Enters shadow 23:22:14 35° 97° (E) 892 2.8 -16.9°
